Weather History for South Bend, IN

Change the Weather History Date:

Friday, May 24, 2013

  Actual Average Record
Temperature  
Mean Temperature 47 °F 62 °F  
Max Temperature 56 °F 72 °F 90 °F (2007)
Min Temperature 37 °F 51 °F 33 °F (1925)
Degree Days  
Heating Degree Days 18 5  
Month to date heating degree days 119 193  
Since 1 July heating degree days 6074 6224  
Cooling Degree Days 0 2  
Month to date cooling degree days 61 30  
Year to date cooling degree days 66 40  
Moisture  
Dew Point 36 °F    
Average Humidity 66    
Maximum Humidity 86    
Minimum Humidity 46    
Precipitation  
Precipitation 0.00 in 0.13 in 1.94 in (1927)
Month to date precipitation 1.59 2.91  
Year to date precipitation 15.64 12.80  
Snow  
Snow 0.00 in - - ()
Month to date snowfall 0.0  
Snow Depth 0.00 in    
Sea Level Pressure  
Sea Level Pressure 30.35 in    
Wind  
Wind Speed 8 mph (NNW)    
Max Wind Speed 16 mph    
Max Gust Speed 21 mph    
Visibility 10 miles    
Events      
T = Trace of Precipitation, MM = Missing Value Source: NWS Daily Summary

Daily Weather History Graph

Daily Weather History Graph

Search for Another Location

Airport:

Trip Planner

Search our weather history database for the weather conditions in past years. The results will help you decide how hot, cold, wet, or windy it might be!

Date:

Astronomy

May. 24, 2013 Rise Set
Actual Time 6:17 AM EDT 9:07 PM EDT
Civil Twilight 5:45 AM EDT 9:39 PM EDT
Nautical Twilight 5:03 AM EDT 10:21 PM EDT
Astronomical Twilight 4:16 AM EDT 11:08 PM EDT
Moon 8:48 PM EDT (5/24) 5:50 AM EDT (5/24)
Length of Visible Light 15h 54m
Length of Day
14h 49m
Full, 100% of the Moon is Illuminated
May 24
Full
May 25
Full
May 31
Last Quarter
Jun 8
New
Jun 16
First Quarter

Hourly Weather History & Observations

Time (EDT) Temp. Windchill Dew Point Humidity Pressure Visibility Wind Dir Wind Speed Gust Speed Precip Events Conditions
12:54 AM 42.1 °F 37.7 °F 37.9 °F 85% 30.25 in 10.0 mi NNW 6.9 mph - N/A   Scattered Clouds
1:54 AM 41.0 °F 37.1 °F 37.9 °F 89% 30.25 in 10.0 mi NNW 5.8 mph - N/A   Clear
2:54 AM 41.0 °F 35.2 °F 37.9 °F 89% 30.27 in 10.0 mi North 9.2 mph - N/A   Clear
3:54 AM 39.0 °F 34.0 °F 35.1 °F 86% 30.28 in 10.0 mi North 6.9 mph - N/A   Clear
4:54 AM 37.0 °F 30.4 °F 34.0 °F 89% 30.29 in 10.0 mi North 9.2 mph - N/A   Clear
5:54 AM 37.0 °F 31.6 °F 33.1 °F 86% 30.31 in 10.0 mi NNW 6.9 mph - N/A   Clear
6:54 AM 37.9 °F 33.5 °F 34.0 °F 86% 30.33 in 10.0 mi North 5.8 mph - N/A   Clear
7:54 AM 41.0 °F 35.8 °F 35.1 °F 79% 30.36 in 10.0 mi North 8.1 mph - N/A   Clear
8:54 AM 44.1 °F 40.8 °F 36.0 °F 73% 30.39 in 10.0 mi NNE 5.8 mph - N/A   Partly Cloudy
9:54 AM 46.9 °F - 37.0 °F 68% 30.40 in 10.0 mi NNW 4.6 mph - N/A   Partly Cloudy
10:54 AM 50.0 °F - 36.0 °F 59% 30.41 in 10.0 mi North 4.6 mph - N/A   Partly Cloudy
11:54 AM 53.1 °F - 36.0 °F 52% 30.41 in 10.0 mi NNW 12.7 mph - N/A   Clear
12:54 PM 55.0 °F - 39.0 °F 55% 30.41 in 10.0 mi NNW 11.5 mph - N/A   Partly Cloudy
1:54 PM 53.1 °F - 37.0 °F 55% 30.41 in 10.0 mi NW 9.2 mph 19.6 mph N/A   Clear
2:54 PM 55.9 °F - 37.9 °F 51% 30.41 in 10.0 mi North 11.5 mph - N/A   Clear
3:54 PM 55.0 °F - 36.0 °F 49% 30.40 in 10.0 mi NNW 13.8 mph 18.4 mph N/A   Clear
4:54 PM 55.9 °F - 35.1 °F 45% 30.40 in 10.0 mi NNW 10.4 mph 18.4 mph N/A   Clear
5:54 PM 55.9 °F - 36.0 °F 47% 30.37 in 10.0 mi North 11.5 mph - N/A   Clear
6:54 PM 54.0 °F - 33.1 °F 45% 30.34 in 10.0 mi NNW 6.9 mph - N/A   Clear
7:54 PM 54.0 °F - 33.1 °F 45% 30.32 in 10.0 mi North 6.9 mph - N/A   Clear
8:54 PM 48.9 °F - 35.1 °F 59% 30.34 in 10.0 mi WNW 8.1 mph - N/A   Clear
9:54 PM 44.1 °F 39.5 °F 36.0 °F 73% 30.36 in 10.0 mi WNW 8.1 mph - N/A   Clear
10:54 PM 43.0 °F 40.3 °F 37.0 °F 80% 30.38 in 10.0 mi WNW 4.6 mph - N/A   Clear
11:54 PM 42.1 °F 39.2 °F 36.0 °F 79% 30.38 in 10.0 mi NNW 4.6 mph - N/A   Clear